This is the latest recevied weather packets stored in our database for station/object KD4PMP. If no packets are shown the sender has not sent any weather packets the latest 10 day(s).
| Time | Temp. | Humidity | Pressure | Rain* | Wind** | Luminosity | Snow |
|---|---|---|---|---|---|---|---|
| 1788299460 | 37.22° C | 46% | 1015.1 hPa | 0 mm | - | - | - |
| 1788298854 | 37.22° C | 46% | 1015.1 hPa | 0 mm | - | - | - |
| 1788298247 | 37.22° C | 47% | 1015.2 hPa | 0 mm | - | - | - |
| 1788297641 | 36.67° C | 48% | 1015.2 hPa | 0 mm | - | - | - |
| 1788297035 | 36.11° C | 47% | 1015.4 hPa | 0 mm | - | - | - |
| 1788296428 | 36.67° C | 46% | 1015.4 hPa | 0 mm | - | - | - |
| 1788295822 | 36.67° C | 46% | 1015.5 hPa | 0 mm | - | - | - |
| 1788295215 | 37.22° C | 46% | 1015.7 hPa | 0 mm | - | - | - |
| 1788294630 | 37.22° C | 45% | 1015.6 hPa | 0 mm | - | - | - |
| 1788294003 | 37.22° C | 47% | 1015.7 hPa | 0 mm | - | - | - |
| 1788293396 | 37.22° C | 46% | 1015.8 hPa | 0 mm | - | - | - |
| 1788292790 | 36.67° C | 46% | 1015.9 hPa | 0 mm | - | - | - |
| 1788292184 | 37.22° C | 47% | 1016 hPa | 0 mm | - | - | - |
| 1788291578 | 37.22° C | 46% | 1016.1 hPa | 0 mm | - | - | - |
| 1788290971 | 37.22° C | 47% | 1016.2 hPa | 0 mm | - | - | - |
| 1788290365 | 37.22° C | 46% | 1016.4 hPa | 0 mm | - | - | - |
| 1788289759 | 36.67° C | 48% | 1016.4 hPa | 0 mm | - | - | - |
| 1788289152 | 36.67° C | 47% | 1016.6 hPa | 0 mm | - | - | - |
| 1788288546 | 36.67° C | 48% | 1016.6 hPa | 0 mm | - | - | - |
| 1788287939 | 36.11° C | 49% | 1016.7 hPa | 0 mm | - | - | - |
| 1788287333 | 35.56° C | 50% | 1016.8 hPa | 0 mm | - | - | - |
| 1788286727 | 36.11° C | 48% | 1017 hPa | 0 mm | - | - | - |
| 1788286120 | 35.56° C | 51% | 1017.2 hPa | 0 mm | - | - | - |
| 1788285514 | 35.56° C | 51% | 1017.2 hPa | 0 mm | - | - | - |
| 1788284908 | 35.56° C | 53% | 1017.3 hPa | 0 mm | - | - | - |
* Rain latest hour (hover to see other rain measurements)
** Current wind speed in m/s (hover to see current wind gust speed)